Regional Weather Roundup
Issued by NWS

Home | Current Version | Previous Version | Text Only | Print | Product List | Glossary On
Versions: 1 2 3 4 5 6 7 8 9 10 11 12 13 14 15 16 17 18 19 20 21 22 23 24 25 26 27 28
000
ASUS42 KKEY 162210
RWRKEY

FLORIDA REGIONAL WEATHER ROUNDUP FOR THE FLORIDA KEYS
NATIONAL WEATHER SERVICE KEY WEST FLORIDA
600 PM EDT WED APR 16 2014

...SOUTH FLORIDA AND THE KEYS...

CITY           SKY/WX    TMP DP  RH WIND       PRES   REMARKS
FORT MYERS     SUNNY     78  62  57 E10       30.01S
SW REGIONAL AP MOSUNNY   78  63  59 E15       30.02S
NAPLES         MOSUNNY   80  68  66 NE10      30.00S
MIAMI          PTSUNNY   79  68  69 NE12      30.00S
WEST KENDALL   CLOUDY    82  68  62 E13       29.99S
HOMESTEAD      MOSUNNY   79  71  74 E15       29.99S
MARATHON       PTSUNNY   82  73  74 E13       29.98S
BOCA CHICA NAS CLOUDY    80  71  74 N10       29.99S
KEY WEST INTL  CLOUDY    79  71  76 N9        29.99F

...INTERNATIONAL WEATHER...

CITY           SKY/WX    TMP DP  RH WIND       PRES   REMARKS
NASSAU BAHAMAS NOT AVBL
CANCUN MEXICO  PTSUNNY   81  72  74 SE8       29.92R
COZUMEL MEXICO PTSUNNY   81  72  74 SE12      29.91R

ADJACENT COASTAL WATERS...

STATION/POSITION TIME  SKY/WX   TEMP    WIND        PRES    WAVE
                                AIR SEA DIR/SP/G            HT/PER
                 (UTC)          (F)     (DEG/KT/KT) (MB)    (FT/S)
PULASKI SHOAL LI NOT AVBL
SAND KEY         NOT AVBL
SOMBRERO KEY     2200            78      80/ 12/ 13 1015.8S
LONG KEY         2200            79 82  100/ 14/ 15 1016.0F
MOLASSES REEF    2200            77 78   70/ 16/ 17 1015.3S
FOWEY ROCKS      2200            76 79   40/ 17/ 17 1016.0R
Buoy 42080       NOT AVBL

$$



USA.gov is the U.S. government's official web portal to all federal, state and local government web resources and services.